| time (UTC) | temp F | wind direction | speed knots | gust knots | rain 1hr in | rain 24hr in | rain mn in | humidity % | barometer mb |
| 20260504001707 | 88 | 45 | 0.0 | 0.9 | 0.00 | 0.00 | 0.00 | 35 | 1007.6 |
| 20260504001203 | 90 | 21 | 0.0 | 0.9 | 0.00 | 0.00 | 0.00 | 33 | 1007.8 |
| 20260504000700 | 90 | 25 | 1.7 | 2.6 | 0.00 | 0.00 | 0.00 | 34 | 1007.6 |
| 20260504000157 | 89 | 5 | 0.0 | 0.9 | 0.00 | 0.00 | 0.00 | 33 | 1007.7 |
| 20260503235655 | 89 | 67 | 0.9 | 0.9 | 0.00 | 0.00 | 0.00 | 34 | 1007.9 |
| 20260503235151 | 88 | 35 | 0.0 | 0.0 | 0.00 | 0.00 | 0.00 | 34 | 1007.8 |
| 20260503234649 | 89 | 60 | 0.0 | 0.0 | 0.00 | 0.00 | 0.00 | 34 | 1007.8 |
| 20260503234148 | 89 | 35 | 0.0 | 0.0 | 0.00 | 0.00 | 0.00 | 34 | 1008.0 |
| 20260503233644 | 89 | 67 | 0.0 | 0.9 | 0.00 | 0.00 | 0.00 | 34 | 1007.9 |
| 20260503233139 | 88 | 40 | 0.0 | 0.0 | 0.00 | 0.00 | 0.00 | 36 | 1007.9 |
| 20260503232637 | 88 | 37 | 0.0 | 0.0 | 0.00 | 0.00 | 0.00 | 36 | 1008.0 |
| 20260503232134 | 89 | 25 | 0.9 | 0.9 | 0.00 | 0.00 | 0.00 | 33 | 1008.2 |
| 20260503231632 | 90 | 48 | 0.0 | 0.9 | 0.00 | 0.00 | 0.00 | 33 | 1008.2 |
| 20260503231128 | 88 | 333 | 0.9 | 0.9 | 0.00 | 0.00 | 0.00 | 36 | 1008.2 |
| 20260503230625 | 90 | 59 | 0.9 | 1.7 | 0.00 | 0.00 | 0.00 | 36 | 1008.2 |
| 20260503230122 | 89 | 353 | 0.0 | 0.9 | 0.00 | 0.00 | 0.00 | 35 | 1008.4 |
| 20260503225620 | 89 | 34 | 0.0 | 0.0 | 0.00 | 0.00 | 0.00 | 35 | 1008.6 |
| 20260503225119 | 88 | 4 | 0.0 | 0.9 | 0.00 | 0.00 | 0.00 | 35 | 1008.6 |
| 20260503224617 | 90 | 24 | 0.0 | 0.9 | 0.00 | 0.00 | 0.00 | 34 | 1008.5 |
| 20260503224115 | 89 | 329 | 0.9 | 1.7 | 0.00 | 0.00 | 0.00 | 34 | 1008.6 |
| 20260503223613 | 87 | 21 | 0.0 | 0.0 | 0.00 | 0.00 | 0.00 | 37 | 1008.7 |
| 20260503223108 | 86 | 48 | 0.9 | 1.7 | 0.00 | 0.00 | 0.00 | 37 | 1008.6 |
| 20260503222606 | 86 | 316 | 0.0 | 0.0 | 0.00 | 0.00 | 0.00 | 39 | 1008.6 |
| 20260503222104 | 85 | 322 | 0.0 | 0.0 | 0.00 | 0.00 | 0.00 | 38 | 1008.9 |
| 20260503221602 | 87 | 319 | 1.7 | 1.7 | 0.00 | 0.00 | 0.00 | 36 | 1008.8 |
| 20260503221059 | 87 | 23 | 0.0 | 0.0 | 0.00 | 0.00 | 0.00 | 37 | 1009.0 |
| 20260503220555 | 84 | 49 | 0.0 | 0.0 | 0.00 | 0.00 | 0.00 | 38 | 1008.9 |
| 20260503220052 | 84 | 307 | 1.7 | 1.7 | 0.00 | 0.00 | 0.00 | 38 | 1009.0 |
| 20260503215549 | 85 | 285 | 0.9 | 1.7 | 0.00 | 0.00 | 0.00 | 39 | 1009.4 |
| 20260503215046 | 86 | 329 | 0.9 | 0.9 | 0.00 | 0.00 | 0.00 | 39 | 1009.3 |
| 20260503214544 | 85 | 350 | 0.0 | 0.0 | 0.00 | 0.00 | 0.00 | 40 | 1009.3 |
| 20260503214040 | 83 | 347 | 0.9 | 1.7 | 0.00 | 0.00 | 0.00 | 41 | 1009.5 |
| 20260503213539 | 86 | 343 | 0.0 | 0.9 | 0.00 | 0.00 | 0.00 | 39 | 1009.4 |
| 20260503213035 | 86 | 65 | 0.9 | 0.9 | 0.00 | 0.00 | 0.00 | 38 | 1009.7 |
| 20260503212533 | 86 | 335 | 0.0 | 0.0 | 0.00 | 0.00 | 0.00 | 39 | 1009.5 |
| 20260503212030 | 85 | 326 | 1.7 | 1.7 | 0.00 | 0.00 | 0.00 | 39 | 1009.6 |
| 20260503211527 | 86 | 74 | 2.6 | 2.6 | 0.00 | 0.00 | 0.00 | 38 | 1009.8 |
| 20260503211022 | 84 | 67 | 1.7 | 1.7 | 0.00 | 0.00 | 0.00 | 40 | 1009.7 |
| 20260503210520 | 84 | 13 | 0.0 | 0.0 | 0.00 | 0.00 | 0.00 | 41 | 1009.7 |
| 20260503210015 | 85 | 68 | 1.7 | 1.7 | 0.00 | 0.00 | 0.00 | 40 | 1009.7 |
| 20260503205512 | 85 | 41 | 0.0 | 0.0 | 0.00 | 0.00 | 0.00 | 40 | 1010.0 |
| 20260503205009 | 84 | 30 | 0.0 | 0.0 | 0.00 | 0.00 | 0.00 | 40 | 1010.0 |
| 20260503204506 | 84 | 2 | 0.0 | 0.0 | 0.00 | 0.00 | 0.00 | 40 | 1010.0 |
| 20260503204002 | 83 | 28 | 0.0 | 0.9 | 0.00 | 0.00 | 0.00 | 42 | 1010.1 |
| 20260503203500 | 82 | 57 | 0.9 | 1.7 | 0.00 | 0.00 | 0.00 | 41 | 1010.2 |
| 20260503202956 | 82 | 346 | 0.0 | 0.0 | 0.00 | 0.00 | 0.00 | 41 | 1010.2 |
| 20260503202455 | 81 | 53 | 0.9 | 0.9 | 0.00 | 0.00 | 0.00 | 43 | 1010.1 |
| 20260503201953 | 82 | 319 | 0.0 | 0.9 | 0.00 | 0.00 | 0.00 | 43 | 1010.5 |
| 20260503201450 | 83 | 40 | 0.0 | 0.0 | 0.00 | 0.00 | 0.00 | 43 | 1010.5 |
| 20260503200947 | 83 | 83 | 0.0 | 0.9 | 0.00 | 0.00 | 0.00 | 41 | 1010.5 |
| 20260503200444 | 82 | 83 | 0.9 | 1.7 | 0.00 | 0.00 | 0.00 | 42 | 1010.5 |
| 20260503195940 | 83 | 14 | 0.0 | 0.0 | 0.00 | 0.00 | 0.00 | 42 | 1010.9 |
| 20260503195438 | 82 | 32 | 0.0 | 0.0 | 0.00 | 0.00 | 0.00 | 43 | 1010.7 |
| 20260503194934 | 82 | 73 | 0.9 | 1.7 | 0.00 | 0.00 | 0.00 | 43 | 1010.9 |
| 20260503194431 | 80 | 345 | 0.0 | 0.0 | 0.00 | 0.00 | 0.00 | 45 | 1011.0 |
| 20260503193926 | 81 | 47 | 0.0 | 0.9 | 0.00 | 0.00 | 0.00 | 43 | 1010.9 |
| 20260503193422 | 80 | 347 | 0.9 | 0.9 | 0.00 | 0.00 | 0.00 | 46 | 1010.9 |
| 20260503192918 | 80 | 42 | 0.0 | 0.9 | 0.00 | 0.00 | 0.00 | 44 | 1011.1 |
| 20260503192414 | 81 | 60 | 0.0 | 0.0 | 0.00 | 0.00 | 0.00 | 45 | 1011.1 |
| 20260503191910 | 80 | 30 | 0.0 | 0.0 | 0.00 | 0.00 | 0.00 | 46 | 1011.0 |
| 20260503191408 | 80 | 64 | 0.9 | 0.9 | 0.00 | 0.00 | 0.00 | 45 | 1011.1 |
| 20260503190904 | 79 | 77 | 1.7 | 1.7 | 0.00 | 0.00 | 0.00 | 47 | 1011.5 |
| 20260503190401 | 78 | 56 | 0.9 | 1.7 | 0.00 | 0.00 | 0.00 | 47 | 1011.2 |
| 20260503185858 | 79 | 28 | 0.0 | 0.0 | 0.00 | 0.00 | 0.00 | 47 | 1011.4 |
| 20260503185354 | 79 | 59 | 0.9 | 0.9 | 0.00 | 0.00 | 0.00 | 47 | 1011.4 |
| 20260503184854 | 78 | 8 | 0.0 | 0.0 | 0.00 | 0.00 | 0.00 | 47 | 1011.5 |
| 20260503184350 | 78 | 334 | 1.7 | 1.7 | 0.00 | 0.00 | 0.00 | 46 | 1011.4 |
| 20260503183846 | 77 | 5 | 0.0 | 0.9 | 0.00 | 0.00 | 0.00 | 47 | 1011.7 |
| 20260503183344 | 77 | 8 | 0.0 | 0.0 | 0.00 | 0.00 | 0.00 | 48 | 1011.7 |
| 20260503182841 | 77 | 352 | 0.9 | 0.9 | 0.00 | 0.00 | 0.00 | 49 | 1011.9 |
| 20260503182340 | 77 | 27 | 0.0 | 0.9 | 0.00 | 0.00 | 0.00 | 48 | 1011.7 |
| 20260503181837 | 77 | 52 | 0.0 | 0.9 | 0.00 | 0.00 | 0.00 | 50 | 1011.8 |
| 20260503181334 | 75 | 28 | 0.0 | 0.0 | 0.00 | 0.00 | 0.00 | 50 | 1011.8 |
| 20260503180830 | 76 | 27 | 0.9 | 1.7 | 0.00 | 0.00 | 0.00 | 50 | 1011.7 |
| 20260503180328 | 76 | 56 | 0.9 | 0.9 | 0.00 | 0.00 | 0.00 | 50 | 1011.8 |
| 20260503175824 | 75 | 40 | 0.9 | 0.9 | 0.00 | 0.00 | 0.00 | 50 | 1011.8 |
| 20260503175322 | 74 | 336 | 0.0 | 0.9 | 0.00 | 0.00 | 0.00 | 51 | 1011.9 |
| 20260503174817 | 74 | 73 | 2.6 | 2.6 | 0.00 | 0.00 | 0.00 | 52 | 1011.8 |
| 20260503174316 | 74 | 62 | 0.9 | 0.9 | 0.00 | 0.00 | 0.00 | 53 | 1011.8 |
| 20260503173811 | 74 | 19 | 0.0 | 0.0 | 0.00 | 0.00 | 0.00 | 53 | 1012.0 |
| 20260503173308 | 74 | 57 | 0.9 | 0.9 | 0.00 | 0.00 | 0.00 | 53 | 1011.9 |
| 20260503172804 | 74 | 57 | 0.0 | 0.9 | 0.00 | 0.00 | 0.00 | 53 | 1012.2 |
| 20260503172305 | 74 | 27 | 0.0 | 0.0 | 0.00 | 0.00 | 0.00 | 53 | 1012.3 |
| 20260503171758 | 73 | 354 | 0.0 | 0.0 | 0.00 | 0.00 | 0.00 | 53 | 1012.3 |
| 20260503171255 | 74 | 40 | 0.9 | 0.9 | 0.00 | 0.00 | 0.00 | 54 | 1012.4 |
| 20260503170752 | 73 | 337 | 0.9 | 0.9 | 0.00 | 0.00 | 0.00 | 51 | 1012.4 |
| 20260503170249 | 75 | 22 | 0.0 | 0.9 | 0.00 | 0.00 | 0.00 | 52 | 1012.3 |
| 20260503160211 | 69 | 29 | 0.0 | 0.9 | 0.00 | 0.00 | 0.00 | 60 | 1012.3 |
| 20260503150641 | 62 | 43 | 0.0 | 0.0 | 0.00 | 0.00 | 0.00 | 70 | 1012.5 |
| 20260503150137 | 61 | 44 | 0.0 | 0.0 | 0.00 | 0.00 | 0.00 | 75 | 1012.4 |
| 20260503131031 | 50 | 8 | 0.0 | 0.0 | 0.00 | 0.00 | 0.00 | 96 | 1012.0 |
| 20260503130528 | 50 | 8 | 0.0 | 0.0 | 0.00 | 0.00 | 0.00 | 96 | 1012.0 |
| 20260503110419 | 51 | 8 | 0.0 | 0.0 | 0.00 | 0.00 | 0.00 | 92 | 1012.3 |
| 20260503090310 | 54 | 8 | 0.0 | 0.0 | 0.00 | 0.00 | 0.00 | 88 | 1012.5 |
| 20260503081243 | 55 | 8 | 0.0 | 0.0 | 0.00 | 0.00 | 0.00 | 85 | 1012.5 |
| 20260503080738 | 55 | 8 | 0.0 | 0.0 | 0.00 | 0.00 | 0.00 | 85 | 1012.5 |
| 20260503080236 | 55 | 8 | 0.0 | 0.0 | 0.00 | 0.00 | 0.00 | 85 | 1012.4 |
| 20260503072712 | 56 | 2 | 0.0 | 0.0 | 0.00 | 0.00 | 0.00 | 83 | 1012.7 |
| 20260503072209 | 56 | 60 | 0.0 | 0.0 | 0.00 | 0.00 | 0.00 | 83 | 1012.7 |
| 20260503071706 | 56 | 60 | 0.0 | 0.0 | 0.00 | 0.00 | 0.00 | 82 | 1012.4 |
| 20260503071203 | 57 | 61 | 0.0 | 0.0 | 0.00 | 0.00 | 0.00 | 82 | 1012.5 |
| 20260503070659 | 57 | 61 | 0.0 | 0.0 | 0.00 | 0.00 | 0.00 | 82 | 1012.4 |
| 20260503070158 | 57 | 61 | 0.0 | 0.0 | 0.00 | 0.00 | 0.00 | 82 | 1012.4 |
| 20260503060122 | 59 | 61 | 0.0 | 0.0 | 0.00 | 0.00 | 0.00 | 77 | 1012.4 |
| 20260503055114 | 59 | 61 | 0.0 | 0.0 | 0.00 | 0.00 | 0.00 | 77 | 1012.4 |
| 20260503054609 | 59 | 61 | 0.0 | 0.0 | 0.00 | 0.00 | 0.00 | 77 | 1012.5 |
| 20260503054106 | 59 | 61 | 0.0 | 0.0 | 0.00 | 0.00 | 0.00 | 76 | 1012.5 |
| 20260503053604 | 60 | 61 | 0.0 | 0.0 | 0.00 | 0.00 | 0.00 | 77 | 1012.3 |
| 20260503053102 | 60 | 61 | 0.0 | 0.0 | 0.00 | 0.00 | 0.00 | 77 | 1012.4 |
| 20260503052558 | 60 | 61 | 0.0 | 0.0 | 0.00 | 0.00 | 0.00 | 76 | 1012.5 |
| 20260503052055 | 60 | 61 | 0.0 | 0.0 | 0.00 | 0.00 | 0.00 | 75 | 1012.3 |
| 20260503051550 | 60 | 61 | 0.0 | 0.0 | 0.00 | 0.00 | 0.00 | 75 | 1012.3 |
| 20260503051048 | 60 | 61 | 0.0 | 0.0 | 0.00 | 0.00 | 0.00 | 74 | 1012.4 |
| 20260503050544 | 61 | 61 | 0.0 | 0.0 | 0.00 | 0.00 | 0.00 | 74 | 1012.4 |
| 20260503050042 | 61 | 61 | 0.0 | 0.0 | 0.00 | 0.00 | 0.00 | 74 | 1012.4 |
| 20260503045538 | 61 | 61 | 0.0 | 0.0 | 0.00 | 0.00 | 0.00 | 73 | 1012.4 |
| 20260503045036 | 61 | 61 | 0.0 | 0.0 | 0.00 | 0.00 | 0.00 | 73 | 1012.3 |
| 20260503044532 | 62 | 61 | 0.0 | 0.0 | 0.00 | 0.00 | 0.00 | 74 | 1012.1 |
| 20260503044030 | 62 | 61 | 0.0 | 0.0 | 0.00 | 0.00 | 0.00 | 72 | 1012.1 |
| 20260503043526 | 62 | 61 | 0.0 | 0.0 | 0.00 | 0.00 | 0.00 | 72 | 1011.9 |
| 20260503043023 | 62 | 61 | 0.0 | 0.0 | 0.00 | 0.00 | 0.00 | 71 | 1012.1 |
| 20260503042520 | 62 | 61 | 0.0 | 0.0 | 0.00 | 0.00 | 0.00 | 71 | 1012.0 |
| 20260503042016 | 63 | 61 | 0.0 | 0.0 | 0.00 | 0.00 | 0.00 | 70 | 1011.9 |
| 20260503041513 | 63 | 61 | 0.0 | 0.0 | 0.00 | 0.00 | 0.00 | 69 | 1012.0 |
| 20260503041011 | 63 | 62 | 0.0 | 0.0 | 0.00 | 0.00 | 0.00 | 69 | 1011.8 |
| 20260503040508 | 64 | 62 | 0.0 | 0.0 | 0.00 | 0.00 | 0.00 | 69 | 1011.8 |
| 20260503040005 | 64 | 62 | 0.0 | 0.0 | 0.00 | 0.00 | 0.00 | 69 | 1011.7 |
| 20260503035501 | 65 | 62 | 0.0 | 0.0 | 0.00 | 0.00 | 0.00 | 68 | 1011.5 |
| 20260503034959 | 65 | 63 | 0.0 | 0.0 | 0.00 | 0.00 | 0.00 | 67 | 1011.6 |
| 20260503034456 | 66 | 63 | 0.0 | 0.0 | 0.00 | 0.00 | 0.00 | 65 | 1011.4 |
| 20260503033953 | 66 | 63 | 0.0 | 0.0 | 0.00 | 0.00 | 0.00 | 66 | 1011.2 |
| 20260503033450 | 66 | 63 | 0.0 | 0.0 | 0.00 | 0.00 | 0.00 | 65 | 1011.2 |
| 20260503032949 | 67 | 63 | 0.0 | 0.0 | 0.00 | 0.00 | 0.00 | 64 | 1011.2 |
| 20260503032447 | 67 | 63 | 0.0 | 0.0 | 0.00 | 0.00 | 0.00 | 63 | 1011.2 |
| 20260503031944 | 67 | 36 | 0.0 | 0.0 | 0.00 | 0.00 | 0.00 | 64 | 1011.1 |
| 20260503031442 | 68 | 36 | 0.0 | 0.0 | 0.00 | 0.00 | 0.00 | 62 | 1011.1 |
| 20260503030938 | 69 | 36 | 0.0 | 0.0 | 0.00 | 0.00 | 0.00 | 60 | 1011.0 |
| 20260503030434 | 69 | 35 | 0.0 | 0.0 | 0.00 | 0.00 | 0.00 | 59 | 1011.1 |
| 20260503025931 | 70 | 51 | 0.0 | 0.0 | 0.00 | 0.00 | 0.00 | 59 | 1010.8 |
| 20260503025429 | 71 | 51 | 0.0 | 0.0 | 0.00 | 0.00 | 0.00 | 55 | 1011.0 |
| 20260503024926 | 71 | 51 | 0.0 | 0.0 | 0.00 | 0.00 | 0.00 | 53 | 1011.0 |
| 20260503024422 | 71 | 51 | 0.0 | 0.0 | 0.00 | 0.00 | 0.00 | 53 | 1010.8 |
| 20260503023920 | 72 | 7 | 0.0 | 0.0 | 0.00 | 0.00 | 0.00 | 52 | 1010.9 |
| 20260503023417 | 72 | 36 | 0.0 | 0.0 | 0.00 | 0.00 | 0.00 | 52 | 1010.7 |
| 20260503022913 | 72 | 26 | 0.0 | 0.0 | 0.00 | 0.00 | 0.00 | 51 | 1010.8 |
| 20260503022408 | 73 | 29 | 0.0 | 0.0 | 0.00 | 0.00 | 0.00 | 50 | 1010.7 |
| 20260503021904 | 73 | 39 | 0.0 | 0.0 | 0.00 | 0.00 | 0.00 | 50 | 1010.6 |
| 20260503021401 | 73 | 9 | 0.0 | 0.0 | 0.00 | 0.00 | 0.00 | 51 | 1010.6 |
| 20260503020858 | 73 | 7 | 0.0 | 0.0 | 0.00 | 0.00 | 0.00 | 50 | 1010.5 |
| 20260503020356 | 73 | 359 | 0.9 | 0.9 | 0.00 | 0.00 | 0.00 | 50 | 1010.6 |
| 20260503015852 | 74 | 4 | 0.0 | 0.0 | 0.00 | 0.00 | 0.00 | 50 | 1010.5 |
| 20260503015349 | 74 | 20 | 0.9 | 0.9 | 0.00 | 0.00 | 0.00 | 50 | 1010.7 |
| 20260503014844 | 75 | 350 | 0.0 | 0.9 | 0.00 | 0.00 | 0.00 | 49 | 1010.7 |
| 20260503014343 | 75 | 4 | 0.0 | 0.0 | 0.00 | 0.00 | 0.00 | 50 | 1010.5 |
| 20260503013840 | 75 | 46 | 0.0 | 0.0 | 0.00 | 0.00 | 0.00 | 50 | 1010.6 |
| 20260503013337 | 75 | 308 | 1.7 | 1.7 | 0.00 | 0.00 | 0.00 | 49 | 1010.5 |
| 20260503012834 | 75 | 52 | 0.0 | 0.0 | 0.00 | 0.00 | 0.00 | 50 | 1010.7 |
| 20260503012332 | 76 | 347 | 0.9 | 0.9 | 0.00 | 0.00 | 0.00 | 49 | 1010.7 |
| 20260503011828 | 76 | 12 | 0.0 | 0.0 | 0.00 | 0.00 | 0.00 | 49 | 1010.5 |
| 20260503011325 | 76 | 24 | 0.0 | 0.0 | 0.00 | 0.00 | 0.00 | 49 | 1010.5 |
| 20260503010821 | 77 | 27 | 0.0 | 0.0 | 0.00 | 0.00 | 0.00 | 50 | 1010.7 |
| 20260503010319 | 77 | 8 | 0.9 | 0.9 | 0.00 | 0.00 | 0.00 | 48 | 1010.6 |
| 20260503005815 | 78 | 35 | 0.9 | 0.9 | 0.00 | 0.00 | 0.00 | 46 | 1010.4 |
| 20260503005313 | 77 | 356 | 0.0 | 0.0 | 0.00 | 0.00 | 0.00 | 49 | 1010.6 |
| 20260503004809 | 78 | 15 | 0.0 | 0.0 | 0.00 | 0.00 | 0.00 | 47 | 1010.8 |
| 20260503004307 | 76 | 317 | 0.0 | 0.9 | 0.00 | 0.00 | 0.00 | 49 | 1010.8 |
| 20260503003804 | 78 | 265 | 0.0 | 0.9 | 0.00 | 0.00 | 0.00 | 48 | 1010.6 |
| 20260503003301 | 79 | 179 | 0.9 | 1.7 | 0.00 | 0.00 | 0.00 | 47 | 1010.9 |
| 20260503002758 | 79 | 45 | 0.0 | 0.9 | 0.00 | 0.00 | 0.00 | 48 | 1010.7 |
| 20260503002255 | 78 | 53 | 0.9 | 0.9 | 0.00 | 0.00 | 0.00 | 47 | 1010.7 |